Location: City of Moscow
(46.7306°N, 116.9989°W)
Time: 02:43:19
(UTC+00:00)

KORONAS-FOTON - Pass Details

Date: 11 December 2025
Orbit: 433 x 448 km, 82.4° (Epoch: 14 January)

Event Time Altitude Azimuth Distance (km) Brightness Sun altitude
Exits shadow 14:37:42 - 345° (NNW) 2,366 6.8 -7.6°
Reaches altitude 10° 14:39:40 10° 339° (NNW) 1,548 5.8 -7.3°
Maximum altitude 14:42:55 46° 265° (W) 593 3.7 -6.8°
Drops below altitude 10° 14:46:08 10° 191° (S) 1,535 6.4 -6.3°
Sets 14:48:12 0° 185° (S) 2,399 7.5 -6.0°
